Cadillac, MI

2:59 AM EDT on April 23, 2017 (GMT -0400)
Wexford County

Weather History for KCAD - January, 2014

Change the Weather History Date:

Monday, January 6, 2014

  Actual Average Record
Temperature  
Mean Temperature 2 °F -  
Max Temperature 11 °F 25 °F 44 °F (2012)
Min Temperature -7 °F 12 °F -15 °F (1951)
Degree Days  
Heating Degree Days 63    
Moisture  
Dew Point -4 °F    
Average Humidity 77    
Maximum Humidity 85    
Minimum Humidity 65    
Precipitation  
Precipitation 0.00 in - - ()
Sea Level Pressure  
Sea Level Pressure 29.74 in    
Wind  
Wind Speed 12 mph (WNW)    
Max Wind Speed 22 mph    
Max Gust Speed 30 mph    
Visibility 4 miles    
Events Snow    
Averages and records for this station are not official NWS values.
T = Trace of Precipitation, MM = Missing Value Source: NWS Daily Summary

Daily Weather History Graph

Daily Weather History Graph

Search for Another Location

Airport or City:

Trip Planner

Search our weather history database for the weather conditions in past years. The results will help you decide how hot, cold, wet, or windy it might be!

Date:

Astronomy

Jan. 06, 2014 Rise Set
Actual Time 8:17 AM EST 5:18 PM EST
Civil Twilight 7:44 AM EST 5:51 PM EST
Nautical Twilight 7:07 AM EST 6:27 PM EST
Astronomical Twilight 6:32 AM EST 7:02 PM EST
Moon 11:17 AM EST (1/6) No Moon Set
Length of Visible Light 10h 06m
Length of Day
9h 01m
Waxing Crescent, 34% of the Moon is Illuminated
Jan 6
Waxing Crescent
Jan 7
First Quarter
Jan 15
Full
Jan 24
Last Quarter
Jan 30
New

Hourly Weather History & Observations

Time (EST) Temp. Windchill Dew Point Humidity Pressure Visibility Wind Dir Wind Speed Gust Speed Precip Events Conditions
12:14 AM 10.6 °F -3.8 °F 6.1 °F 82% 29.70 in 3.0 mi North 11.5 mph - N/A Snow Light Snow
12:35 AM 10.4 °F -3.3 °F 5.9 °F 82% 29.69 in 4.0 mi NNW 10.4 mph 18.4 mph N/A Snow Light Snow
12:55 AM 10.4 °F -1.5 °F 6.6 °F 85% 29.69 in 2.0 mi NNW 8.1 mph - N/A Snow Light Snow
1:14 AM 11.1 °F -1.6 °F 7.0 °F 83% 29.69 in 1.5 mi NNW 9.2 mph - N/A Snow Light Snow
1:35 AM 11.3 °F -2.9 °F 6.6 °F 81% 29.68 in 2.0 mi NNW 11.5 mph - N/A Snow Light Snow
1:55 AM 11.3 °F -3.6 °F 6.1 °F 80% 29.67 in 3.0 mi NNW 12.7 mph 18.4 mph N/A Snow Light Snow
2:14 AM 11.1 °F -4.5 °F 6.1 °F 80% 29.67 in 4.0 mi NNW 13.8 mph 18.4 mph N/A Snow Light Snow
2:35 AM 11.3 °F -2.2 °F 6.1 °F 80% 29.67 in 5.0 mi NW 10.4 mph - N/A Snow Light Snow
2:55 AM 10.6 °F -2.2 °F 5.5 °F 80% 29.67 in 3.0 mi NNW 9.2 mph - N/A Snow Light Snow
3:14 AM 9.7 °F -4.2 °F 5.4 °F 83% 29.67 in 10.0 mi NNW 10.4 mph - N/A   Overcast
3:35 AM 9.5 °F -5.2 °F 5.0 °F 82% 29.66 in 10.0 mi NW 11.5 mph 16.1 mph N/A   Overcast
3:55 AM 10.8 °F -2.8 °F 5.5 °F 79% 29.65 in 10.0 mi NW 10.4 mph - N/A Snow Light Snow
4:14 AM 10.9 °F -0.8 °F 5.4 °F 78% 29.66 in 7.0 mi NW 8.1 mph 17.3 mph N/A Snow Light Snow
4:35 AM 10.6 °F -3.1 °F 5.2 °F 79% 29.65 in 7.0 mi NW 10.4 mph - N/A Snow Light Snow
4:54 AM 10.2 °F -1.7 °F 5.0 °F 79% 29.65 in 5.0 mi NW 8.1 mph - N/A Snow Light Snow
5:15 AM 10.2 °F -2.7 °F 5.0 °F 79% 29.65 in 4.0 mi WNW 9.2 mph - N/A Snow Light Snow
5:35 AM 9.1 °F -4.9 °F 4.8 °F 83% 29.65 in 2.0 mi WNW 10.4 mph - N/A Snow Light Snow
5:54 AM 8.4 °F -5.7 °F 3.9 °F 82% 29.66 in 5.0 mi WNW 10.4 mph - N/A Snow Light Snow
6:15 AM 8.2 °F -5.1 °F 4.1 °F 83% 29.65 in 3.0 mi West 9.2 mph - N/A Snow Light Snow
6:35 AM 7.7 °F -6.6 °F 3.7 °F 84% 29.66 in 5.0 mi WNW 10.4 mph 17.3 mph N/A Snow Light Snow
6:55 AM 7.7 °F -7.4 °F 3.6 °F 83% 29.66 in 10.0 mi West 11.5 mph - N/A Snow Light Snow
7:15 AM 8.4 °F -4.9 °F 3.9 °F 82% 29.66 in 10.0 mi WNW 9.2 mph - N/A Snow Light Snow
7:35 AM 8.6 °F -3.7 °F 3.9 °F 81% 29.66 in 5.0 mi NW 8.1 mph - N/A Snow Light Snow
7:55 AM 8.2 °F -1.8 °F 4.1 °F 83% 29.67 in 1.5 mi WNW 5.8 mph - N/A Snow Light Snow
8:15 AM 8.8 °F -3.5 °F 4.6 °F 83% 29.67 in 1.2 mi WNW 8.1 mph - N/A Snow Snow
8:35 AM 7.9 °F -6.4 °F 3.9 °F 84% 29.68 in 0.8 mi NW 10.4 mph - N/A Snow Light Snow
8:54 AM 8.2 °F -6.0 °F 3.7 °F 82% 29.69 in 1.0 mi WNW 10.4 mph - N/A Snow Light Snow
9:15 AM 6.8 °F -12.4 °F 2.3 °F 82% 29.69 in 0.5 mi NW 18.4 mph - N/A Snow Light Snow
9:35 AM 6.4 °F -10.5 °F 1.4 °F 80% 29.70 in 0.8 mi NW 13.8 mph 26.5 mph N/A Snow Light Snow
9:54 AM 5.0 °F -14.2 °F -0.2 °F 79% 29.71 in 0.8 mi WNW 17.3 mph 25.3 mph N/A Snow Light Snow
10:15 AM 4.6 °F -15.7 °F -1.3 °F 76% 29.71 in 1.2 mi WNW 19.6 mph 25.3 mph N/A Snow Light Snow
10:35 AM 4.5 °F -16.9 °F -2.2 °F 74% 29.72 in 1.5 mi WNW 21.9 mph 28.8 mph N/A   Haze
10:54 AM 4.5 °F -16.4 °F -2.6 °F 73% 29.72 in 2.0 mi WNW 20.7 mph 29.9 mph N/A   Haze
11:15 AM 4.5 °F -13.7 °F -2.0 °F 75% 29.72 in 1.2 mi WNW 15.0 mph 24.2 mph N/A Snow Light Snow
11:35 AM 3.2 °F -18.1 °F -2.2 °F 78% 29.73 in 0.5 mi WNW 20.7 mph 28.8 mph N/A Snow Light Snow
11:54 AM 2.8 °F -18.6 °F -3.1 °F 76% 29.73 in 1.0 mi WNW 20.7 mph 27.6 mph N/A Snow Light Snow
12:15 PM 2.3 °F -18.2 °F -4.2 °F 74% 29.73 in 1.2 mi West 18.4 mph 27.6 mph N/A   Haze
12:35 PM 1.8 °F -18.9 °F -5.3 °F 72% 29.73 in 1.2 mi WNW 18.4 mph 28.8 mph N/A   Haze
12:54 PM 1.4 °F -18.8 °F -6.9 °F 68% 29.73 in 4.0 mi WNW 17.3 mph 28.8 mph N/A   Haze
1:15 PM 1.2 °F -20.7 °F -7.8 °F 66% 29.73 in 3.0 mi WNW 20.7 mph 28.8 mph N/A   Haze
1:35 PM 0.9 °F -20.1 °F -8.5 °F 65% 29.74 in 7.0 mi WNW 18.4 mph 26.5 mph N/A   Overcast
1:54 PM 0.5 °F -18.7 °F -8.7 °F 65% 29.74 in 5.0 mi WNW 15.0 mph 26.5 mph N/A   Haze
2:15 PM -0.0 °F -18.0 °F -6.3 °F 75% 29.74 in 1.2 mi West 12.7 mph - N/A Snow Light Snow
2:35 PM -0.0 °F -17.1 °F -8.1 °F 69% 29.75 in 2.5 mi WNW 11.5 mph - N/A   Haze
2:54 PM 0.5 °F -19.4 °F -8.5 °F 66% 29.75 in 5.0 mi WNW 16.1 mph 21.9 mph N/A   Haze
3:15 PM -1.3 °F -21.0 °F -10.5 °F 65% 29.77 in 3.0 mi West 15.0 mph 24.2 mph N/A   Haze
3:35 PM -2.2 °F -23.5 °F -10.8 °F 67% 29.77 in 4.0 mi West 17.3 mph 26.5 mph N/A   Haze
3:54 PM -3.1 °F -25.3 °F -12.1 °F 65% 29.78 in 10.0 mi West 18.4 mph 23.0 mph N/A   Mostly Cloudy
4:15 PM -3.5 °F -23.8 °F -11.6 °F 68% 29.80 in 5.0 mi West 15.0 mph 23.0 mph N/A   Haze
4:35 PM -4.0 °F -23.7 °F -11.7 °F 69% 29.80 in 7.0 mi West 13.8 mph 19.6 mph N/A   Scattered Clouds
4:54 PM -4.0 °F -21.2 °F -9.4 °F 78% 29.81 in 1.0 mi West 10.4 mph - N/A Snow Light Snow
5:15 PM -4.0 °F -20.2 °F -10.1 °F 75% 29.81 in 1.5 mi West 9.2 mph 20.7 mph N/A Snow Light Snow
5:35 PM -5.4 °F -27.0 °F -12.5 °F 72% 29.81 in 7.0 mi West 16.1 mph 20.7 mph N/A   Scattered Clouds
5:54 PM -5.8 °F -23.4 °F -12.6 °F 72% 29.82 in 7.0 mi West 10.4 mph 17.3 mph N/A   Scattered Clouds
6:15 PM -6.2 °F -25.7 °F -12.8 °F 73% 29.83 in 10.0 mi West 12.7 mph 17.3 mph N/A   Scattered Clouds
6:34 PM -6.2 °F -22.8 °F -11.9 °F 76% 29.83 in 4.0 mi West 9.2 mph 17.3 mph N/A Snow Light Snow
6:55 PM -6.7 °F -25.5 °F -12.1 °F 77% 29.84 in 5.0 mi WSW 11.5 mph - N/A   Haze
7:15 PM -6.7 °F -25.5 °F -12.3 °F 77% 29.84 in 4.0 mi West 11.5 mph - N/A   Haze
7:34 PM -6.9 °F -27.4 °F -12.3 °F 77% 29.84 in 4.0 mi West 13.8 mph 19.6 mph N/A   Haze
7:55 PM -6.9 °F -25.7 °F -12.5 °F 77% 29.85 in 3.0 mi WSW 11.5 mph 18.4 mph N/A   Haze
8:15 PM -7.1 °F -26.8 °F -12.3 °F 78% 29.85 in 2.5 mi West 12.7 mph 18.4 mph N/A Snow Light Snow
8:34 PM -6.7 °F -24.5 °F -12.1 °F 77% 29.84 in 2.5 mi West 10.4 mph 16.1 mph N/A Snow Light Snow
8:55 PM -6.9 °F -24.8 °F -12.8 °F 75% 29.85 in 4.0 mi West 10.4 mph - N/A   Haze
9:15 PM -7.4 °F -24.4 °F -13.0 °F 77% 29.85 in 3.0 mi West 9.2 mph - N/A   Haze
9:34 PM -7.6 °F -24.6 °F -13.0 °F 77% 29.84 in 3.0 mi West 9.2 mph - N/A   Haze
9:55 PM -7.6 °F -25.7 °F -13.0 °F 77% 29.85 in 3.0 mi West 10.4 mph - N/A   Haze
10:15 PM -7.2 °F -25.2 °F -13.0 °F 76% 29.84 in 4.0 mi West 10.4 mph - N/A Snow Light Snow
10:34 PM -7.1 °F -21.4 °F -12.8 °F 76% 29.84 in 3.0 mi West 6.9 mph - N/A Snow Light Snow
10:55 PM -7.4 °F -25.4 °F -13.0 °F 77% 29.84 in 3.0 mi West 10.4 mph - N/A   Haze
11:14 PM -7.1 °F -23.9 °F -13.0 °F 75% 29.84 in 3.0 mi West 9.2 mph 17.3 mph N/A   Haze
11:35 PM -7.6 °F -24.6 °F -13.0 °F 77% 29.84 in 3.0 mi WSW 9.2 mph 16.1 mph N/A   Haze
11:55 PM -7.6 °F -24.6 °F -13.0 °F 77% 29.83 in 3.0 mi West 9.2 mph - N/A Snow Light Snow